Regional Weather Roundup
Issued by NWS Northern Indiana

Home | Current Version | Previous Version | Text Only | Print | Product List | Glossary Off
Versions: 1 2 3 4 5 6 7 8 9 10 11 12 13 14 15 16 17 18 19 20 21 22 23 24 25 26 27 28 29 30 31 32 33 34 35 36 37 38 39 40 41 42 43 44 45 46 47 48 49 50

000
ASUS43 KIWX 310610
RWRIWX

KIWX WEATHER ROUNDUP
NATIONAL WEATHER SERVICE NORTHERN INDIANA
200 AM EDT SUN AUG 31 2014

NOTE: "FAIR" INDICATES FEW OR NO CLOUDS BELOW 12,000 FEET WITH NO
SIGNIFICANT WEATHER AND/OR OBSTRUCTIONS TO VISIBILITY.

* THESE STATIONS ARE NOT UNDER NWS QUALITY CONTROL. THEY ALSO MAY NOT
  REPORT WEATHER SUCH AS PRECIPITATION OR FOG.

INZ001>027-310700-
NORTHERN INDIANA

CITY           SKY/WX    TMP DP  RH WIND       PRES   REMARKS
GARY*          FAIR      71  68  91 S3        29.94R
VALPARAISO     MOCLDY    68  65  90 SW8       29.96R
6HR MIN TEMP:  68; 6HR MAX TEMP:  76; 6HR PCP:  0.21;

MICHIGAN CITY* FAIR      68  66  94 SW3       29.94S
LAPORTE*       FAIR      68  65  92 SW6       29.95R
6HR MIN TEMP:  68; 6HR MAX TEMP:  75;

KNOX*          CLOUDY    68  65  90 SW7       29.94R
6HR MIN TEMP:  41; 6HR MAX TEMP:  88;

SOUTH BEND     FAIR      72  67  84 SW9       29.95R
6HR MIN TEMP:  72; 6HR MAX TEMP:  75; 6HR PCP:  0.17;

GOSHEN         CLOUDY    75  70  84 SW6       29.95S
6HR MIN TEMP:  74; 6HR MAX TEMP:  77; 6HR PCP: TRACE;

MONTICELLO*    HVY RAIN  66  65  97 SW6       29.97R
6HR MIN TEMP:  66; 6HR MAX TEMP:  77; 6HR PCP:  0.56;

LOGANSPORT*    RAIN      70  66  88 SW14      29.98R
ROCHESTER*     RAIN      73  72  94 SW7       29.96S
WARSAW*        CLOUDY    72  70  94 SW3       29.96S
ANGOLA*        CLOUDY    73  66  78 SW8       29.97R
FORT WAYNE     MOCLDY    73  69  87 S13       29.98S
6HR MIN TEMP:  72; 6HR MAX TEMP:  76;

HUNTINGTON*    CLOUDY    73  70  91 S7        29.97S
6HR MIN TEMP:  73; 6HR MAX TEMP:  76;

PERU/GRISSOM   LGT RAIN  72  72 100 SW14G24   29.98R FOG
6HR MIN TEMP:  71; 6HR MAX TEMP:  76; 6HR PCP:  0.12;

MARION*        FAIR      70  67  92 S7        30.00F FOG
6HR MIN TEMP:  40; 6HR MAX TEMP:  88;


$$
INZ028>050-310700-
CENTRAL INDIANA

CITY           SKY/WX    TMP DP  RH WIND       PRES   REMARKS
LAFAYETTE      CLOUDY    72  69  90 VRB3      29.97S
6HR MIN TEMP:  71; 6HR MAX TEMP:  77;

KOKOMO*        MOCLDY    72  66  83 SW12      29.99S
6HR MIN TEMP:  72; 6HR MAX TEMP:  75;

MUNCIE*        FAIR      72  66  81 SW10      30.01S
6HR MIN TEMP:  72; 6HR MAX TEMP:  76;

INDIANAPOLIS   MOCLDY    70  67  90 S13       30.00F
6HR MIN TEMP:  70; 6HR MAX TEMP:  76;


$$
MIZ043>046-050>051-056>058-064>065-071>073-077>080-310700-
SOUTHWEST LOWER MICHIGAN

CITY           SKY/WX    TMP DP  RH WIND       PRES   REMARKS
BATTLE CREEK   FAIR      70  67  90 SW8       29.95S
6HR MIN TEMP:  68; 6HR MAX TEMP:  77; 6HR PCP:  0.01;

BENTON HARBOR  FAIR      70  68  93 SW3       29.92S
6HR MIN TEMP:  70; 6HR MAX TEMP:  77;

COLDWATER*     RAIN      69  68  96 W6        29.97S
6HR MIN TEMP:  68; 6HR MAX TEMP:  74;

HILLSDALE*     LGT RAIN  69  69 100 CALM      29.98S
6HR MIN TEMP:  69; 6HR MAX TEMP:  79;

HOLLAND        FAIR      69  67  93 S3        29.92R
6HR MIN TEMP:  69; 6HR MAX TEMP:  77;

GRAND RAPIDS   CLOUDY    72  71  97 SW7       29.92R
6HR MIN TEMP:  71; 6HR MAX TEMP:  78;

KALAMAZOO      FAIR      69  67  93 S6        29.94F
6HR MIN TEMP:  68; 6HR MAX TEMP:  76; 6HR PCP:  0.16;

STURGIS*       CLOUDY    70  70 100 CALM      29.95S
THREE RIVERS*  MOCLDY    71  70  96 S5        29.95S
6HR MIN TEMP:  67; 6HR MAX TEMP:  75;


$$
OHZ001>008-015>018-024>025-310700-
NORTHWEST OHIO

CITY           SKY/WX    TMP DP  RH WIND       PRES   REMARKS
WAUSEON*       CLOUDY    73  70  88 SW8G15    29.97S
DEFIANCE       MOCLDY    75  68  78 SW8       29.97S
6HR MIN TEMP:  74; 6HR MAX TEMP:  77;

FINDLAY        MOCLDY    75  68  78 SW12      29.99R
6HR MIN TEMP:  75; 6HR MAX TEMP:  78;

TOLEDO EXPRESS FAIR      74  69  85 SW9       29.96S
6HR MIN TEMP:  74; 6HR MAX TEMP:  79;

TOLEDO METCALF FAIR      76  68  76 SW12      29.97S
6HR MIN TEMP:  76; 6HR MAX TEMP:  80;

LIMA           FAIR      74  67  78 SW12      30.00S
6HR MIN TEMP:  74; 6HR MAX TEMP:  78;


$$
&&



USA.gov is the U.S. government's official web portal to all federal, state and local government web resources and services.